Location: Bois de la Silve
(44.4667°N, 6.7833°E)
Time: 10:39:33
(UTC+00:00)

Cosmos 1933 Rocket - Pass Details

Date: 14 July 2020
Orbit: 607 x 629 km, 82.5° (Epoch: 05 August)

Event Time Altitude Azimuth Distance (km) Brightness Sun altitude
Exits shadow 00:23:24 60° 116° (ESE) 701 3.6 -23.1°
Maximum altitude 00:23:41 61° 95° (E) 691 3.7 -23.1°
Drops below altitude 10° 00:27:59 10° 15° (NNE) 1,970 7.3 -22.9°
Sets 00:30:14 0° 12° (NNE) 2,881 8.5 -22.9°
